{"data":{"norad_id":67438,"epoch":"2026-09-20T06:47:19.125600Z","epoch_age_seconds":119152,"freshness":"FRESH","line1":"1 67438U 26007D   26263.28286025 -.00000113  00000+0  23982-4 0  9998","line2":"2 67438  50.0042 104.9834 0000394  28.0346 332.0547 13.29329800 33433","mean_motion":13.293298,"eccentricity":3.94e-5,"inclination_deg":50.0042,"raan_deg":104.9834,"arg_perigee_deg":28.0346,"mean_anomaly_deg":332.0547,"bstar":2.3982e-5,"rev_number":3343,"period_min":108.3252628505,"perigee_km":1148.995645919,"apogee_km":1149.588807342,"semimajor_km":7527.4292266305,"source":"CELESTRAK","updated_at":"2026-09-21T09:00:16.633406Z"}}